Theta_e
305 305 305 306 306 308 308 308 308 308 308 308 310 311 311 311 310 300 296 299 296 290 292 296 297 291 292 290 287 289 287 289 290 286 285 285 285 288 286 289 287 284 285 285 286 283 283 297 296 289 293 296 303 300
304 304 304 305 305 307 308 308 308 308 308 309 311 311 311 311 310 303 293 300 299 294 292 296 298 299 298 296 292 289 288 288 290 288 286 286 285 285 283 281 290 282 287 283 285 286 295 294 293 295 297 302 298 297
304 304 304 305 305 307 308 308 308 308 309 310 311 311 311 311 310 303 297 296 295 290 290 290 292 296 298 298 298 290 289 293 291 292 289 287 284 286 281 282 285 290 290 285 286 290 290 293 295 296 299 297 297 298
304 304 304 304 305 306 307 307 307 307 309 309 310 311 311 311 311 305 296 296 295 291 288 288 297 295 300 298 298 296 296 295 293 292 288 285 284 288 284 285 285 288 288 286 285 289 291 292 294 296 296 298 298 299
303 303 304 304 305 306 307 307 307 307 308 309 310 311 310 310 309 304 298 299 298 292 285 288 292 295 296 297 297 297 295 292 290 288 285 284 286 286 286 285 283 287 286 283 282 289 289 291 295 296 295 296 297 298
302 302 303 303 304 305 307 307 307 308 308 309 310 310 310 309 307 301 293 301 300 298 290 284 290 292 295 295 297 295 294 292 291 289 287 288 290 287 281 280 287 289 290 290 289 293 294 295 296 297 296 297 299 300
302 302 302 303 304 305 306 307 308 308 308 309 310 310 309 308 301 295 292 301 303 302 290 285 284 292 295 295 293 293 294 294 295 293 287 287 289 293 289 283 288 290 292 295 297 296 293 297 296 301 300 301 302 302
301 302 302 302 303 305 306 307 307 308 308 309 309 309 308 306 302 295 299 304 301 294 292 284 283 287 294 292 291 296 295 295 295 293 292 291 291 291 285 287 290 294 298 299 299 299 298 299 299 299 301 301 299 299
301 302 302 302 303 305 306 307 307 308 308 308 308 307 302 298 292 294 306 303 298 293 285 289 282 282 295 291 295 293 292 290 295 291 291 292 290 285 287 290 295 297 298 298 299 300 300 299 300 301 302 302 301 301
301 301 302 302 303 305 306 307 308 308 308 307 302 297 292 296 305 303 295 291 290 291 289 287 286 283 287 285 285 287 288 288 287 287 290 289 288 293 296 298 299 300 300 300 297 296 299 299 300 301 302 303 304 304
301 301 302 302 303 304 306 307 308 308 305 299 294 293 299 306 296 292 288 288 288 286 287 286 287 284 289 283 282 287 284 285 283 285 285 284 288 296 301 300 300 301 302 302 302 302 302 302 302 303 305 306 307 307
302 302 302 302 303 304 305 307 307 301 299 298 299 301 299 294 291 286 284 287 286 283 287 285 286 287 287 289 285 286 284 285 282 289 289 284 293 298 298 298 300 302 302 302 304 304 305 306 307 306 304 304 305 306
302 302 302 302 303 303 306 307 305 305 304 301 297 292 291 289 283 283 281 283 283 288 289 288 287 287 288 289 289 287 284 283 289 285 284 290 295 297 296 298 300 301 302 304 304 306 307 306 305 303 303 303 304 304
302 303 302 302 303 303 307 306 306 304 299 292 289 284 286 283 285 285 286 286 290 291 292 291 292 290 291 289 288 287 288 287 285 283 287 291 293 294 296 299 299 300 303 303 305 305 306 305 303 303 304 303 304 302
302 303 302 302 303 303 306 306 305 301 296 290 290 283 285 289 290 290 291 289 292 294 295 293 293 292 292 289 290 290 287 282 287 287 289 291 293 293 296 298 299 301 302 304 306 306 306 306 303 302 303 302 302 302
302 302 298 302 303 306 305 303 300 298 295 292 291 288 290 288 289 291 291 291 295 295 298 295 291 290 289 286 285 285 284 284 287 289 291 292 292 294 297 299 300 302 304 304 303 305 305 304 302 301 303 302 301 300
301 296 302 302 304 303 302 297 296 292 290 290 288 291 290 289 289 291 292 293 297 297 292 289 286 287 289 285 284 289 287 289 291 292 293 292 294 296 299 301 303 302 302 302 301 301 301 303 302 300 298 301 302 300
298 299 303 303 302 300 298 297 293 290 287 288 286 287 290 291 290 291 293 295 295 296 294 290 292 288 286 285 286 290 292 293 293 293 293 296 298 300 301 301 303 303 304 302 301 301 301 300 301 300 299 299 302 301
301 303 304 302 300 296 293 293 294 287 288 289 288 288 291 292 292 294 295 296 297 299 294 290 287 284 284 287 289 291 293 292 291 292 296 299 301 302 303 304 304 302 302 301 301 302 302 302 302 302 301 298 296 300
302 302 302 303 302 295 289 287 292 288 287 288 288 287 291 292 293 295 293 294 292 294 291 287 286 287 287 289 293 294 293 293 293 295 297 300 302 301 301 301 301 300 300 301 302 298 301 301 303 302 302 300 296 297
300 301 302 298 297 297 295 289 288 289 289 288 290 292 291 291 291 291 290 292 290 289 287 289 289 291 293 294 296 296 298 299 296 296 299 298 303 301 302 303 302 301 299 302 300 297 298 297 298 300 300 301 298 298
298 302 297 299 294 293 294 295 292 293 290 292 290 290 289 288 289 289 291 289 289 290 290 291 293 297 299 299 300 302 302 303 302 303 298 298 301 302 300 301 300 299 297 297 297 297 299 300 300 302 302 301 297 298
300 298 295 295 290 290 290 298 292 292 288 287 287 286 286 287 289 292 288 289 290 296 298 299 300 301 300 301 301 302 303 302 302 302 302 303 304 303 303 302 301 302 302 302 302 302 302 297 302 303 303 304 302 301
300 295 292 291 290 286 293 288 290 288 286 283 281 282 283 286 290 287 286 288 291 296 297 299 301 299 300 300 299 299 301 302 302 304 305 303 305 304 304 303 303 303 303 304 305 305 304 304 300 303 303 303 302 303
282 284 285 280 290 285 284 285 285 283 282 283 283 283 288 289 285 283 286 292 295 296 300 303 302 302 301 300 301 301 304 302 302 304 304 303 301 301 301 303 303 301 302 303 303 304 302 301 300 299 299 299 299 296
275 285 281 284 283 282 282 282 281 282 282 283 284 287 288 288 285 285 289 294 296 298 301 303 303 303 304 305 301 303 305 305 304 301 302 304 305 300 297 296 297 300 301 303 303 301 300 299 298 298 297 297 291 295
278 282 286 289 288 286 283 286 290 287 285 287 288 289 288 285 285 289 295 298 298 303 307 308 306 304 304 303 305 306 306 306 304 306 308 307 304 302 298 297 296 298 300 302 301 299 297 297 296 296 296 299 299 299
286 287 281 285 286 287 285 286 288 287 288 292 290 287 285 286 289 297 301 306 306 307 307 307 303 300 297 296 295 295 296 299 303 302 301 300 303 305 301 299 296 288 296 295 298 298 297 295 294 293 293 292 292 295
286 289 290 286 287 288 288 287 287 290 294 293 288 289 291 295 301 303 305 307 308 307 300 295 295 295 296 295 295 294 293 294 294 293 291 290 292 294 297 298 300 300 297 292 285 291 296 295 294 292 291 289 288 288
286 291 289 289 287 286 290 293 293 297 298 298 299 297 299 301 302 306 305 302 299 298 299 298 294 292 290 289 289 290 291 291 292 292 290 289 290 292 293 294 293 293 296 296 293 292 287 290 289 290 288 287 286 285
292 290 290 289 289 293 294 297 295 295 297 295 295 294 296 299 301 303 302 299 295 293 293 292 291 291 290 289 289 289 288 290 290 291 290 290 289 290 291 293 294 294 293 292 291 290 289 288 288 287 286 285 284 284
290 290 292 290 292 295 296 294 294 294 294 293 293 294 294 294 294 300 302 298 296 294 290 291 291 290 291 290 290 290 287 288 288 289 289 289 289 289 290 292 292 292 290 289 288 287 286 285 285 284 283 283 283 283
291 292 293 295 295 294 296 295 294 294 295 295 296 294 293 293 292 297 301 303 299 297 296 295 293 293 293 293 291 289 287 286 283 282 283 283 282 284 287 289 291 290 289 287 286 285 285 284 283 283 282 281 281 280
Wind_Speed
12 13 13 13 14 15 13 13 14 13 14 13 12 11 9 8 6 4 3 1 4 2 5 3 2 1 3 2 2 3 4 4 4 4 2 1 1 2 3 4 4 2 3 2 0 2 8 5 5 4 8 12 8 7
13 14 14 14 14 16 11 12 12 13 11 11 13 12 10 8 7 5 1 2 1 2 6 2 5 9 7 8 4 2 3 2 3 4 1 2 1 3 1 4 5 4 1 2 3 6 3 3 4 6 7 4 7 10
12 13 13 12 13 15 10 10 10 10 8 7 10 11 11 10 9 5 2 1 3 2 5 3 4 3 3 6 6 4 3 2 2 3 3 1 1 2 2 5 3 3 3 2 5 6 8 16 17 9 5 14 11 16
13 12 10 12 12 14 9 9 9 8 8 10 10 10 10 10 9 6 2 1 3 2 2 7 3 3 3 6 7 5 4 4 4 3 3 2 2 3 3 4 4 5 5 3 7 12 12 10 7 14 17 11 16 16
14 13 10 11 12 14 10 8 8 8 9 10 12 13 11 11 9 3 1 2 2 4 3 5 7 4 3 6 9 6 5 3 2 2 2 3 2 1 2 2 4 4 7 4 6 8 11 18 16 15 18 20 19 17
14 13 11 11 11 12 9 9 9 8 8 10 13 12 12 11 9 2 2 1 3 3 1 4 4 5 3 4 7 8 5 3 3 4 3 2 3 3 1 4 8 6 4 5 10 11 18 23 21 20 18 18 18 17
14 13 13 12 12 11 11 9 8 9 8 8 9 11 13 12 3 3 4 1 3 2 2 4 5 5 1 4 2 3 2 2 3 2 2 3 3 4 3 5 4 5 9 11 14 12 15 15 16 21 22 23 22 21
14 13 12 12 12 11 13 10 8 10 9 8 11 13 12 8 4 2 2 3 4 4 2 2 5 5 2 2 2 2 3 2 1 3 1 3 1 2 5 7 7 12 13 16 14 9 15 20 22 22 21 20 19 19
13 12 11 11 11 10 11 9 9 9 10 15 17 15 4 2 1 3 4 7 2 4 1 1 1 3 5 2 2 3 2 2 0 3 3 4 3 5 7 7 11 14 11 18 19 19 19 18 20 21 21 22 20 18
13 12 11 10 11 9 8 9 12 12 21 20 4 2 2 3 3 5 4 2 1 1 2 3 1 4 2 3 2 2 1 3 3 5 3 3 4 7 12 13 12 13 14 17 17 17 18 18 17 20 19 19 18 15
13 12 11 10 10 8 9 9 13 23 14 2 3 2 1 6 2 2 1 2 1 2 3 4 5 2 2 2 3 2 3 1 1 4 4 2 3 5 6 7 11 13 13 14 14 15 16 16 16 15 15 15 17 12
13 12 11 10 9 7 10 14 22 5 3 5 5 4 2 1 1 2 3 1 4 4 3 4 5 5 3 2 2 1 1 1 5 4 2 2 4 7 5 11 14 12 13 14 13 13 12 11 11 13 13 14 13 14
14 12 11 10 7 9 7 21 15 17 8 4 3 3 3 2 3 5 6 3 3 4 4 4 3 4 0 1 1 2 2 5 1 2 3 3 3 4 7 9 13 12 12 11 12 10 10 10 10 10 13 15 13 12
13 11 11 9 7 6 14 24 23 9 5 2 3 5 3 3 5 5 4 4 5 3 2 4 3 2 1 2 2 3 4 1 2 2 2 3 5 6 9 8 9 12 12 11 11 7 7 7 7 7 9 10 11 10
10 11 8 6 4 6 27 21 12 4 2 3 3 4 6 4 3 3 4 2 3 1 3 3 3 3 1 2 3 2 2 3 2 2 4 5 6 6 10 10 10 10 10 8 9 8 10 8 7 8 8 8 9 10
9 8 2 5 6 21 26 15 5 3 1 1 2 2 3 1 3 0 1 1 1 2 2 3 3 2 3 3 2 4 2 2 3 4 5 4 7 8 8 9 9 7 8 7 6 6 7 8 7 8 7 6 8 8
7 1 8 8 14 18 16 5 3 2 0 2 3 2 2 3 4 2 1 1 1 3 1 2 4 6 3 2 2 2 3 5 4 5 4 5 6 9 9 10 8 6 7 6 6 6 6 7 6 7 8 7 5 6
0 4 12 16 8 7 3 2 2 2 3 3 2 3 2 3 2 2 2 2 2 3 1 3 2 2 3 2 2 4 4 3 4 5 5 8 7 8 7 8 8 7 7 6 6 6 6 5 7 5 6 6 5 4
3 10 21 16 5 4 3 1 1 2 5 2 3 3 3 3 3 3 3 2 1 2 2 1 2 3 3 4 4 4 4 4 4 4 4 6 6 7 7 6 6 6 6 6 7 6 6 7 5 5 4 2 3 3
13 11 10 11 8 2 3 2 2 2 2 4 2 2 3 3 3 3 2 3 4 3 2 3 5 4 5 4 5 5 4 3 3 3 5 4 3 6 6 5 4 5 5 6 6 5 4 5 4 2 3 2 2 4
6 4 7 5 3 1 1 2 2 4 2 1 2 2 3 1 2 2 2 4 3 4 4 5 4 5 5 5 3 3 4 4 4 4 4 4 5 4 5 5 4 4 2 3 4 6 5 3 5 4 2 2 3 4
2 4 3 2 3 5 3 3 1 2 1 2 2 1 2 2 2 1 1 1 3 4 4 4 3 1 1 1 3 4 4 4 3 4 7 4 3 4 4 5 4 4 4 3 2 4 3 1 4 5 5 5 3 4
5 2 2 2 3 4 3 2 2 4 3 2 3 2 3 3 2 3 2 3 3 3 2 3 4 3 3 4 3 3 2 1 3 4 4 3 3 2 3 4 3 3 4 4 3 3 4 4 8 5 5 6 5 6
2 1 2 3 3 3 1 1 0 2 2 2 2 2 2 2 3 1 3 3 2 2 2 4 1 2 1 2 2 3 3 2 3 1 4 4 3 3 2 3 4 3 2 2 3 4 5 7 8 6 6 6 5 5
4 2 3 3 2 2 3 2 3 4 1 1 1 2 2 3 2 2 2 3 3 3 4 3 2 3 2 1 2 2 1 2 2 4 4 4 2 3 3 2 3 4 4 5 5 6 6 6 6 7 8 7 9 10
2 2 2 2 2 3 1 1 0 2 1 2 2 1 2 1 1 3 2 3 2 3 3 3 2 2 5 2 1 3 2 1 2 5 3 2 1 4 3 4 5 6 7 4 4 6 6 6 6 8 8 9 9 10
2 2 2 1 0 1 2 3 2 1 2 1 1 1 1 2 3 4 3 3 3 2 1 2 2 2 4 3 2 3 4 5 4 2 2 3 4 3 4 4 4 2 3 5 5 5 5 5 6 6 6 7 8 7
2 2 2 3 2 1 1 2 2 1 2 1 1 2 2 3 2 2 2 3 4 5 4 5 5 5 5 4 4 5 5 5 5 5 4 5 4 4 4 3 4 6 5 5 5 5 5 5 6 7 7 6 6 6
1 1 2 0 1 2 2 2 2 3 2 3 2 3 3 4 3 2 1 1 2 2 4 4 5 4 6 7 8 7 6 5 7 10 8 4 5 5 7 3 2 3 4 5 7 6 7 5 6 6 6 5 4 6
2 2 2 1 1 4 3 4 2 2 2 2 3 3 2 3 2 3 3 2 2 4 4 4 3 4 4 5 5 8 7 6 5 4 4 2 3 5 5 4 5 4 4 5 5 5 7 5 6 7 8 7 7 7
4 3 2 3 3 2 3 2 1 2 2 2 2 1 3 2 4 4 4 3 4 4 6 5 5 3 5 5 4 5 5 5 5 6 4 2 3 4 4 4 4 5 6 7 6 6 6 7 7 8 10 10 11 9
5 6 3 3 1 1 1 1 1 3 3 3 4 4 5 5 4 2 1 2 5 5 3 5 5 3 3 4 4 5 6 3 3 4 6 4 4 5 4 4 5 7 9 9 8 8 10 10 9 9 10 12 11 11
3 3 4 1 2 0 2 2 2 2 2 2 1 1 1 3 1 3 2 0 3 6 5 4 4 5 6 6 6 5 5 5 5 5 6 7 7 6 5 5 6 7 10 9 9 9 11 12 10 10 10 10 10 10
Wind_Direction
292 293 292 292 296 298 274 277 284 278 273 261 255 216 216 210 196 125 256 275 133 197 274 243 252 322 349 89 139 283 23 345 31 65 117 251 193 326 313 297 313 285 308 277 60 275 277 10 21 63 282 309 307 340
291 286 286 289 295 303 263 270 275 284 249 251 238 213 206 194 177 133 281 314 90 157 242 268 235 230 198 205 134 335 192 210 195 91 51 83 346 10 52 285 319 281 127 260 206 241 270 82 212 244 271 254 298 303
291 290 289 296 291 302 259 265 265 277 259 239 218 218 202 183 174 151 184 299 56 25 308 349 261 281 197 204 169 143 290 209 58 157 147 138 242 134 249 248 294 303 54 246 3 272 307 308 305 292 274 297 293 297
291 289 290 292 296 310 258 262 256 261 257 238 217 220 204 185 173 150 155 212 97 131 290 282 312 281 170 150 174 149 142 48 98 65 94 121 190 176 233 250 225 215 356 261 269 289 294 275 289 296 297 281 288 283
292 295 291 300 301 309 251 256 251 250 251 233 219 218 188 169 160 127 170 226 169 127 245 282 301 272 276 168 163 146 149 98 77 61 83 222 219 119 273 319 261 201 211 173 246 275 276 285 290 284 290 287 286 287
281 285 291 299 301 302 259 248 252 241 243 232 214 193 166 149 131 111 354 34 184 136 45 311 291 297 311 144 155 155 134 119 116 143 205 254 250 131 227 256 249 241 263 235 273 273 278 277 284 282 272 267 269 270
275 275 275 283 296 295 303 247 249 224 223 239 193 154 145 136 108 144 183 175 158 140 77 311 319 280 281 96 83 97 103 154 143 185 196 180 242 170 237 244 267 288 270 276 276 284 287 290 291 302 296 291 289 283
272 269 270 277 288 286 296 232 239 213 213 185 145 133 125 126 61 18 308 146 104 88 68 301 276 335 225 148 108 170 131 144 183 198 130 192 142 206 257 256 286 281 279 279 284 273 285 291 293 291 289 286 287 288
261 271 261 271 282 283 288 213 210 190 158 135 122 115 91 63 100 232 129 85 74 125 204 241 236 254 348 23 83 45 84 168 160 205 208 136 196 228 243 269 264 276 296 297 299 295 295 294 291 293 296 298 297 281
250 255 261 265 275 275 293 215 184 158 133 124 98 110 156 218 179 105 20 48 21 298 57 245 117 266 53 10 10 82 30 206 215 235 130 194 248 246 250 252 266 283 294 299 301 297 298 297 300 302 307 306 299 296
242 245 252 257 270 268 295 199 165 143 119 86 112 104 335 143 82 40 154 193 159 234 205 229 192 220 283 112 226 190 187 216 265 251 146 237 260 247 259 275 297 303 298 296 291 286 287 288 293 299 313 330 329 311
231 238 243 246 259 260 288 177 156 113 151 150 113 94 99 95 109 141 221 191 198 229 206 187 204 191 259 158 121 242 203 72 248 156 166 243 244 258 304 312 304 312 314 309 314 311 312 316 334 336 332 332 335 353
221 235 227 237 233 245 242 166 140 125 118 64 93 118 154 192 181 202 186 212 226 208 193 175 196 174 255 116 125 119 204 239 116 204 231 236 255 293 305 307 308 312 309 315 324 329 344 359 357 349 338 349 348 351
209 214 214 230 221 261 190 142 133 114 72 120 151 148 215 189 232 201 199 193 226 191 156 146 111 164 176 73 140 205 239 36 276 230 249 259 262 280 310 303 306 305 313 313 317 314 328 334 328 333 357 346 347 355
187 192 200 211 236 276 141 132 132 71 113 151 170 191 212 234 250 238 217 266 262 145 143 75 61 95 107 285 216 251 248 256 244 239 236 253 291 303 308 306 302 302 310 324 333 331 326 330 334 328 343 355 358 356
154 147 170 144 252 139 112 104 58 68 59 208 217 262 248 141 313 12 195 187 37 108 70 77 131 181 209 200 177 227 217 248 252 226 245 301 297 299 289 289 285 288 299 309 299 316 317 329 326 305 310 7 356 5
130 139 156 147 113 92 66 72 94 83 77 232 245 251 229 237 225 243 180 132 263 91 232 150 180 202 143 182 228 222 197 221 231 263 267 256 265 282 289 290 302 306 297 303 311 319 318 321 332 359 357 328 348 350
97 171 157 140 120 87 51 61 109 145 212 228 251 268 210 207 188 241 245 192 134 103 262 250 170 169 213 185 218 238 241 259 244 257 271 281 272 265 264 278 298 291 297 318 319 307 301 326 331 314 321 330 313 344
91 124 130 137 137 112 114 147 188 207 221 227 234 229 221 235 234 188 184 193 117 127 272 355 224 201 226 221 223 249 240 222 245 275 259 258 254 282 291 288 285 292 319 327 314 301 292 284 245 277 293 343 304 273
111 90 74 61 52 77 110 204 158 197 241 228 223 227 196 216 198 231 237 152 148 161 231 223 216 217 198 225 204 218 219 218 209 276 292 290 279 269 264 251 253 260 292 307 300 284 329 320 312 319 316 297 298 292
87 80 46 49 353 276 306 141 192 214 258 245 243 194 239 323 261 212 238 148 147 191 218 222 233 252 235 250 235 193 242 207 215 213 267 290 314 314 303 306 316 305 301 306 337 332 337 310 301 301 289 273 245 303
79 90 87 9 10 349 271 218 180 305 10 274 326 321 279 293 293 257 283 154 216 224 196 204 225 254 322 239 221 222 258 290 287 243 250 264 323 343 340 323 333 336 344 326 306 271 274 343 15 350 342 2 42 77
90 86 109 139 238 221 258 138 168 201 215 274 11 356 340 327 262 349 280 231 250 242 257 236 235 218 242 298 306 283 263 204 258 269 271 265 200 49 22 353 319 41 35 345 328 333 348 348 42 9 6 24 34 61
142 164 224 213 212 271 239 182 335 61 45 50 63 312 284 262 321 53 245 258 266 286 274 266 288 320 313 214 225 231 231 193 212 229 24 350 56 68 350 343 344 324 43 294 12 18 13 36 27 12 13 29 28 41
56 306 96 304 238 40 31 31 19 37 356 311 331 294 317 355 349 336 278 286 310 308 306 328 157 213 170 239 267 265 132 149 20 79 36 45 17 346 5 356 352 3 351 51 45 48 34 28 27 27 22 26 40 40
89 297 108 317 311 97 305 42 278 228 226 260 241 9 27 23 297 264 281 268 269 278 299 341 48 87 78 53 42 16 38 75 137 75 359 4 118 86 63 47 22 15 4 35 62 57 46 38 42 42 44 52 52 57
353 287 294 284 300 28 8 302 294 177 305 344 18 325 261 239 242 241 258 237 231 241 49 44 7 79 82 66 42 28 41 45 61 55 350 23 40 46 84 94 74 321 346 69 74 77 74 57 52 45 43 52 52 54
261 300 198 305 4 27 291 313 345 317 285 304 298 231 242 219 276 288 339 11 59 51 39 21 47 59 62 43 31 23 18 8 17 30 21 24 27 37 26 43 57 51 54 34 43 64 74 77 75 66 57 46 35 35
244 263 289 300 13 7 291 198 235 240 211 190 226 242 232 178 233 144 273 221 19 38 79 70 22 25 57 52 44 36 23 26 80 72 61 28 4 345 344 360 67 71 73 78 46 57 75 78 79 83 75 67 41 42
215 209 246 236 225 236 232 183 245 258 225 251 304 293 12 45 20 145 119 97 81 90 93 97 96 78 74 74 64 48 26 22 31 81 91 43 315 303 325 12 44 54 78 74 79 63 45 54 46 51 52 43 41 45
152 179 216 190 256 245 220 183 133 308 298 259 254 72 56 60 35 19 73 96 92 84 86 79 64 51 95 87 95 85 53 3 20 47 50 19 356 5 5 15 37 63 66 66 63 64 69 58 61 70 68 64 58 61
177 196 225 200 177 105 114 76 50 19 8 39 6 32 24 48 40 14 72 108 92 89 105 122 111 99 97 98 82 80 108 128 56 35 39 34 29 19 16 32 57 73 76 71 67 67 68 72 71 68 65 60 59 61
210 208 245 243 78 5 202 151 99 68 56 57 10 127 154 144 138 244 303 7 167 165 176 179 150 146 155 149 137 116 90 87 85 54 50 42 41 40 40 42 65 73 78 76 70 70 68 72 72 70 66 64 60 55